World > North America > United States > Illinois   City of Marion, IL

Marion, Illinois Regional Weather

Lat: 37.73N, Lon: 88.94W
Wx Zone: ILZ085
Feedback

Marion, IL Regional Weather

Expires:202007130600;;765966
ASUS43 KLOT 130509
RWRIL 

ILLINOIS REGIONAL WEATHER ROUNDUP
NATIONAL WEATHER SERVICE CHICAGO/ROMEOVILLE IL
1200 AM CDT MON JUL 13 2020

NOTE: "FAIR" INDICATES FEW OR NO CLOUDS BELOW 12,000 FEET WITH NO
SIGNIFICANT WEATHER AND/OR OBSTRUCTIONS TO VISIBILITY.

* THESE STATIONS ARE NOT UNDER NWS QUALITY CONTROL. THEY ALSO MAY NOT
  REPORT WEATHER SUCH AS PRECIPITATION OR FOG.


ILZ064>066-069>071-074>076-080>082-084>086-088>090-092>094-130600-
SOUTH-CENTRAL ILLINOIS
  
CITY           SKY/WX    TMP DP  RH WIND       PRES   REMARKS
CARBONDALE     PTCLDY    71  67  87 CALM      29.90R                  
CAIRO*         CLEAR     72  68  88 CALM      29.90R                  
EFFINGHAM*     CLEAR     70  67  91 CALM      29.94R                  
MARION         CLEAR     68  67  94 CALM      29.92R                  
MT. VERNON     CLEAR     71  66  84 NE5       29.92R                  
CENTRALIA*     CLEAR     72  68  88 CALM      29.92R                  
SALEM*         CLEAR     73  68  86 CALM      29.92R                  
METROPOLIS*    CLEAR     67  67  99 CALM      29.91R FOG              
$$


SKY/WX - Weather  TMP - Temperature  DP - Dew Point  RH - Relative Humidity
WIND - Wind Direction/Speed PRES - Barometric Pressure VSB - Visibility
WCI - Wind Chill Index E13G22 Wind - East Wind 13 mph/Gusts of 22 mph
Marion Weather Map
UTC Time: 7/13/2020, 05:47
Your Time: